sat.trackr.live / text

‹ back to catalog

STARLINK-31124

NORAD 58674 · 2023-211H

PAYLOAD ACTIVE UNKNOWN

§ Identity

Operator
Country
US
Launch date
2023-12-29
Launch site
AFETR
Launch vehicle
Mass (kg)
RCS (m²)

Purposes: comms

External: N2YO · Heavens-Above · Gunter

§ Orbital elements

Epoch: 2026-05-23T23:44:52.171872Z

Period
94.27 min
Inclination
43.0044°
Eccentricity
0.0001506
Mean motion
15.27581037 rev/d
Perigee alt
482.0 km
Apogee alt
484.1 km
Semi-major
6,861.2 km
B*
1.2155e-4
RAAN
19.7792°
Arg perigee
272.1686°
Mean anomaly
87.8993°
Rev number
13,398

§ Raw data

STARLINK-311241 58674U 23211H   26143.98949273  .00003084  00000+0  12155-3 0  99972 58674  43.0044  19.7792 0001506 272.1686  87.8993 15.27581037133983

JSON: /api/v1/satellites/58674 · /tle

For live sub-satellite position, see the globe view (requires WebGL).

§ Visibility from observer

Set your observer location to see the next 7 days of passes ≥ 10°. The values pass through the URL so the page stays shareable.

No JS? Fill the form by hand. The geolocation button needs JavaScript.